This demonstration page uses our WeatherBlox Daily Observations layout. Learn more.

Left ArrowRight Arrow

Hourly Observations for April 7, 2018

Temp ( °F °C ) Dew Point ( °F °C ) Humidity (%) Winds ( mph kmh ) Pressure ( in mb ) Visibility ( mi km ) Precip ( " mm )
12:05 am 00:05 Cloudy with Heavy Rain 56 13.3 55 12.8 97 97 NNW 7 11 29.80 1009 2 3 0.07 1.78
12:16 am 00:16 Cloudy with Rain 56 13.3 55 12.8 97 97 Calm 29.80 1009 4 6 0.11 2.79
12:53 am 00:53 Cloudy with Heavy Rain 56 13.3 55 12.8 97 97 NW 7 11 29.79 1009 3 4 0.25 6.35
1:06 am 01:06 Cloudy with Heavy Rain 56 13.3 56 13.3 100 100 Calm 29.80 1009 1 2 0.12 3.05
1:13 am 01:13 Cloudy with Heavy Rain 56 13.3 55 12.8 97 97 N 3 6 29.77 1008 2 3 0.18 4.57
1:23 am 01:23 Cloudy with Light Rain 56 13.3 55 12.8 97 97 NE 5 7 29.77 1008 4 6 0.20 5.08
1:30 am 01:30 Cloudy with Light Rain 56 13.3 56 13.3 100 100 Calm 29.77 1008 4 6 0.21 5.33
1:53 am 01:53 Cloudy with Heavy Rain 57 13.9 55 12.8 93 93 W 3 6 29.75 1008 3 5 0.25 6.35
2:01 am 02:01 Cloudy with Rain 56 13.3 56 13.3 100 100 W 6 9 29.77 1008 3 4 0.04 1.02
2:28 am 02:28 Cloudy with Rain 56 13.3 56 13.3 100 100 WNW 6 9 29.77 1008 3 5 0.18 4.57
2:38 am 02:38 Cloudy with Heavy Rain 56 13.3 56 13.3 100 100 NW 6 9 29.77 1008 3 4 0.25 6.35
2:53 am 02:53 Cloudy with Rain 56 13.3 56 13.3 100 100 NNE 3 6 29.75 1007 3 5 0.32 8.13
3:37 am 03:37 Cloudy with Light Rain 57 13.9 57 13.9 100 100 SSW 7 11 29.71 1006 10 16 0.11 2.79
3:53 am 03:53 Cloudy 57 13.9 57 13.9 100 100 SW 8 13 29.70 1006 10 16 0.11 2.79
4:22 am 04:22 Cloudy with Light Rain 57 13.9 56 13.3 96 96 WSW 5 7 29.71 1006 3 4 0.01 0.25
4:30 am 04:30 Cloudy with Light Rain 58 14.4 57 13.9 97 97 SSW 9 15 29.71 1006 3 5 0.02 0.51
4:53 am 04:53 Cloudy with Light Rain 59 15 58 14.4 96 96 SSW 12 19 29.69 1005 5 8 0.04 1.02
5:36 am 05:36 Cloudy 59 15 58 14.4 96 96 SW 10 17 29.71 1006 10 16 0.00 0.03
5:53 am 05:53 Cloudy with Light Rain 59 15 58 14.4 96 96 SSW 10 17 29.70 1006 10 16 0.00 0.03
6:49 am 06:49 Cloudy with Light Rain 59 15 57 14 94 94 S 13 20 29.71 1006 9 14 0.06 1.52
6:53 am 06:53 Mostly Cloudy 59 15 56 13.3 90 90 SSW 12 19 29.71 1006 10 16 0.06 1.52
7:53 am 07:53 Mostly Sunny 59 15 57 13.9 93 93 S 12 19 29.75 1007 10 16 0.00 0.00
8:53 am 08:53 Sunny 59 15 56 13.3 90 90 S 6 9 29.77 1008 10 16 0.00 0.00
9:53 am 09:53 Mostly Cloudy 63 17.2 54 12.2 73 73 SSE 8 13 29.78 1009 10 16 0.00 0.00
10:53 am 10:53 Mostly Cloudy 64 17.8 54 12.2 70 70 SSW 8 13 29.80 1009 10 16 0.00 0.00
11:53 am 11:53 Cloudy 64 17.8 48 8.9 56 56 WSW 8 13 29.82 1010 10 16 0.00 0.00
12:53 pm 12:53 Mostly Cloudy 67 19.4 43 6.1 42 42 W 10 17 29.82 1010 10 16 0.00 0.00
1:53 pm 13:53 Sunny 68 20 41 5 38 38 W 18 30 29.83 1010 10 16 0.00 0.00
2:53 pm 14:53 Sunny 67 19.4 39 3.9 36 36 WSW 16 26 29.85 1011 10 16 0.00 0.00
3:53 pm 15:53 Mostly Sunny 67 19.4 38 3.3 35 35 WSW 18 30 29.86 1011 10 16 0.00 0.00
4:53 pm 16:53 Sunny 65 18.3 38 3.3 37 37 WSW 15 24 29.88 1012 10 16 0.00 0.00
5:53 pm 17:53 Mostly Sunny 64 17.8 35 1.7 34 34 WSW 15 24 29.88 1012 10 16 0.00 0.00
6:53 pm 18:53 Sunny 62 16.7 39 3.9 43 43 W 13 20 29.90 1012 10 16 0.00 0.00
7:53 pm 19:53 Mostly Cloudy 59 15 39 3.9 48 48 W 10 17 29.91 1013 10 16 0.00 0.00
8:53 pm 20:53 Clear 58 14.4 37 2.8 46 46 W 9 15 29.94 1014 10 16 0.00 0.00
9:53 pm 21:53 Clear 57 13.9 36 2.2 45 45 W 7 11 29.98 1015 10 16 0.00 0.00
10:53 pm 22:53 Clear 53 11.7 38 3.3 57 57 SE 7 11 30.01 1016 10 16 0.00 0.00
11:53 pm 23:53 Clear 51 10.6 40 4.4 66 66 Calm 30.04 1017 10 16 0.00 0.00

Powered by AerisWeather